FW1850 Weather Reports


time (UTC)temp
F
wind
direction
speed
knots
gust
knots
rain 1hr
in
rain 24hr
in
rain mn
in
humidity
%
barometer
mb
20211017161609 55 282 6.1 11.3 0.00 0.10 0.03 59 1012.2
20211017160707 56 252 7.0 10.4 0.00 0.10 0.03 59 1012.3
20211017155708 56 229 5.2 9.6 0.00 0.10 0.03 62 1012.3
20211017154709 56 249 5.2 9.6 0.00 0.10 0.03 65 1012.3
20211017153708 56 257 4.3 6.1 0.01 0.11 0.03 65 1012.3
20211017153611 56 227 5.2 8.7 0.01 0.11 0.03 65 1012.2
20211017152708 56 246 6.1 10.4 0.01 0.11 0.03 65 1012.1
20211017151708 55 261 4.3 5.2 0.01 0.11 0.03 67 1012.1
20211017151609 55 266 7.0 12.2 0.01 0.11 0.03 68 1012.1
20211017150610 55 238 5.2 9.6 0.01 0.11 0.03 70 1012.1
20211017145608 54 231 5.2 8.7 0.01 0.11 0.03 71 1012.0
20211017145508 54 256 4.3 7.8 0.01 0.11 0.03 70 1012.1
20211017144510 54 277 4.3 7.8 0.01 0.11 0.03 73 1012.0
20211017143508 54 234 3.5 4.3 0.00 0.10 0.02 72 1012.0
20211017142509 53 247 5.2 7.0 0.00 0.10 0.02 74 1011.9
20211017141510 53 260 4.3 7.0 0.00 0.10 0.02 77 1011.7
20211017141408 53 237 6.1 8.7 0.00 0.10 0.02 78 1011.7
20211017141310 53 248 7.0 15.6 0.00 0.10 0.02 78 1011.7
20211017140309 52 244 2.6 5.2 0.00 0.10 0.02 81 1011.9
20211017140210 52 262 6.1 14.8 0.00 0.10 0.02 81 1011.9
20211017135308 52 249 2.6 6.1 0.00 0.10 0.02 86 1011.8
20211017134309 51 247 3.5 4.3 0.00 0.10 0.02 90 1011.6
20211017133310 50 235 2.6 4.3 0.00 0.10 0.02 94 1011.6
20211017132407 50 230 3.5 6.1 0.00 0.10 0.02 94 1011.6
20211017131507 50 227 2.6 3.5 0.00 0.10 0.02 95 1011.6
20211017130508 49 221 1.7 2.6 0.01 0.11 0.02 95 1011.4
20211017130408 49 221 2.6 4.3 0.01 0.11 0.02 94 1011.4
20211017125507 49 237 1.7 2.6 0.01 0.11 0.02 95 1011.4
20211017124508 49 225 2.6 5.2 0.02 0.12 0.02 94 1011.3
20211017123511 49 223 1.7 3.5 0.02 0.13 0.02 94 1011.1
20211017122509 49 227 2.6 6.1 0.02 0.14 0.02 93 1011.2
20211017121508 49 233 2.6 4.3 0.02 0.14 0.02 93 1011.1
20211017120508 49 222 4.3 6.1 0.01 0.14 0.01 92 1011.1
20211017115507 49 240 3.5 5.2 0.01 0.15 0.01 91 1011.0
20211017113509 50 218 4.3 7.8 0.00 0.14 0.00 88 1010.9
20211017112508 50 220 4.3 7.0 0.00 0.14 0.00 89 1010.9
20211017111607 50 208 3.5 6.1 0.00 0.14 0.00 88 1010.9
20211017110608 50 235 1.7 3.5 0.00 0.14 0.00 88 1010.8
20211017110507 50 222 2.6 5.2 0.00 0.14 0.00 88 1010.8
20211017105510 50 226 5.2 7.8 0.00 0.14 0.00 88 1010.8
20211017104509 50 222 2.6 5.2 0.00 0.14 0.00 90 1010.8
20211017103511 50 232 2.6 4.3 0.00 0.14 0.00 91 1010.9
20211017102607 50 225 1.7 3.5 0.00 0.14 0.00 90 1010.8
20211017101609 50 236 1.7 2.6 0.00 0.14 0.00 90 1010.8
20211017100608 50 215 1.7 2.6 0.00 0.14 0.00 90 1010.8
20211017095609 50 232 2.6 4.3 0.00 0.14 0.00 91 1010.8
20211017094608 50 223 1.7 3.5 0.00 0.14 0.00 91 1010.8
20211017094508 50 215 1.7 3.5 0.00 0.14 0.00 91 1010.8
20211017093510 49 206 1.7 2.6 0.00 0.14 0.00 90 1010.7
20211017092510 49 202 0.0 0.0 0.00 0.14 0.00 90 1010.6
20211017091508 49 240 0.0 1.7 0.00 0.14 0.00 88 1010.7
20211017091409 49 247 0.0 0.0 0.00 0.14 0.00 88 1010.7
20211017090409 50 247 0.0 0.9 0.00 0.14 0.00 88 1010.7
20211017085408 49 237 0.9 2.6 0.00 0.14 0.00 88 1010.6
20211017085308 49 211 1.7 3.5 0.00 0.14 0.00 88 1010.6
20211017084308 49 213 2.6 5.2 0.00 0.15 0.00 90 1010.6
20211017083407 50 225 1.7 3.5 0.00 0.16 0.00 90 1010.4
20211017082408 50 233 0.9 2.6 0.00 0.23 0.00 90 1010.7
20211017081409 50 225 2.6 3.5 0.00 0.25 0.00 90 1010.6
20211017080507 49 223 2.6 3.5 0.00 0.25 0.00 90 1010.7
20211017075509 49 228 2.6 3.5 0.00 0.26 0.00 89 1010.7
20211017075408 49 231 1.7 3.5 0.00 0.26 0.00 89 1010.7
20211017074507 49 224 4.3 7.0 0.00 0.27 0.00 90 1010.7
20211017073509 49 230 2.6 4.3 0.00 0.28 0.00 91 1010.8
20211017072508 49 224 1.7 3.5 0.00 0.28 0.00 90 1010.8
20211017071511 49 224 1.7 3.5 0.00 0.28 0.00 89 1010.8
20211017071408 49 222 2.6 3.5 0.00 0.28 0.00 89 1010.8
20211017070409 49 222 0.9 2.6 0.00 0.30 0.00 88 1010.8
20211017065508 49 225 1.7 2.6 0.00 0.30 0.00 89 1011.0
20211017064509 50 225 1.7 2.6 0.00 0.37 0.00 88 1011.1
20211017064407 50 219 1.7 2.6 0.00 0.39 0.00 88 1011.1
20211017063409 50 224 1.7 3.5 0.00 0.45 0.00 88 1011.0
20211017062507 50 228 1.7 2.6 0.00 0.45 0.00 87 1011.1
20211017061507 51 223 3.5 4.3 0.00 0.46 0.00 86 1011.2
20211017060508 51 225 1.7 3.5 0.00 0.47 0.00 87 1011.4
20211017060407 51 222 3.5 4.3 0.00 0.47 0.00 86 1011.4
20211017055410 51 216 1.7 3.5 0.00 0.47 0.00 86 1011.3
20211017054408 51 221 2.6 4.3 0.00 0.47 0.00 86 1011.3
20211017053407 52 215 2.6 4.3 0.00 0.47 0.00 85 1011.4
20211017053308 52 227 1.7 3.5 0.00 0.47 0.00 86 1011.5
20211017052310 52 230 2.6 4.3 0.00 0.47 0.00 86 1011.5
20211017051407 52 236 1.7 2.6 0.00 0.47 0.00 86 1011.7
20211017050408 52 211 1.7 3.5 0.00 0.47 0.00 86 1011.6
20211017045409 52 230 2.6 4.3 0.00 0.47 0.00 85 1011.5
20211017044508 52 215 1.7 3.5 0.00 0.47 0.00 86 1011.5
20211017044407 52 219 4.3 6.1 0.00 0.47 0.00 85 1011.5
20211017043408 52 224 4.3 7.8 0.00 0.47 0.00 86 1011.5
20211017042407 52 228 3.5 5.2 0.00 0.47 0.00 86 1011.4
20211017041409 53 217 1.7 3.5 0.00 0.47 0.00 84 1011.4
20211017040509 53 213 3.5 4.3 0.00 0.47 0.00 84 1011.3
20211017040407 53 220 2.6 4.3 0.00 0.47 0.00 84 1011.4
20211017035411 53 218 3.5 5.2 0.00 0.47 0.47 84 1011.5
20211017035308 53 216 3.5 4.3 0.00 0.47 0.47 84 1011.5
20211017034310 53 222 2.6 5.2 0.00 0.47 0.47 83 1011.5
20211017033409 53 224 3.5 5.2 0.00 0.47 0.47 82 1011.4
20211017032409 53 221 2.6 4.3 0.00 0.47 0.47 82 1011.4
20211017031508 52 232 3.5 5.2 0.00 0.47 0.47 83 1011.4
20211017030508 52 229 3.5 5.2 0.00 0.47 0.47 85 1011.5
20211017030410 52 228 2.6 5.2 0.00 0.47 0.47 85 1011.4
20211017025410 52 215 2.6 3.5 0.00 0.47 0.47 84 1011.6
20211017024411 53 221 1.7 2.6 0.00 0.47 0.47 83 1011.5
20211017023509 52 222 2.6 3.5 0.00 0.47 0.47 85 1011.4
20211017023410 52 223 2.6 4.3 0.00 0.47 0.47 85 1011.4
20211017022509 52 226 1.7 3.5 0.00 0.47 0.47 86 1011.4
20211017021510 52 228 2.6 4.3 0.00 0.49 0.47 88 1011.5
20211017020509 51 238 1.7 2.6 0.00 0.49 0.47 89 1011.4
20211017020410 51 236 1.7 3.5 0.00 0.49 0.47 89 1011.3
20211017015409 51 222 1.7 2.6 0.00 0.49 0.47 90 1011.4
20211017014410 52 234 1.7 2.6 0.00 0.59 0.47 90 1011.2
20211017013507 52 244 1.7 1.7 0.00 0.60 0.47 90 1011.2
20211017012509 51 216 2.6 3.5 0.00 0.60 0.47 92 1011.0
20211017011510 51 228 3.5 5.2 0.00 0.60 0.47 93 1011.0
20211017010610 51 224 2.6 6.1 0.01 0.60 0.47 93 1010.8
20211017005709 51 235 2.6 3.5 0.01 0.60 0.47 94 1010.7
20211017004709 51 224 1.7 3.5 0.01 0.60 0.47 93 1010.7
20211017003710 51 225 1.7 2.6 0.01 0.60 0.47 93 1010.7
20211017002809 51 227 1.7 2.6 0.01 0.60 0.47 93 1010.4
20211017002708 51 237 1.7 3.5 0.01 0.60 0.47 93 1010.4
20211017001709 51 231 1.7 3.5 0.01 0.60 0.47 92 1010.4
20211017000808 51 227 2.6 3.5 0.00 0.59 0.46 90 1010.3
20211016235811 51 218 2.6 4.3 0.00 0.61 0.46 89 1010.3
20211016235711 51 221 3.5 7.0 0.00 0.62 0.46 89 1010.4
20211016234709 52 233 3.5 6.1 0.00 0.80 0.46 89 1010.4
20211016233709 52 222 4.3 6.1 0.00 0.86 0.46 90 1010.0
20211016232708 52 217 1.7 2.6 0.01 0.86 0.46 91 1009.8
20211016231710 52 236 0.9 3.5 0.01 0.86 0.46 90 1009.8
20211016230710 52 224 3.5 6.1 0.04 0.87 0.46 90 1009.6
20211016225709 52 231 2.6 4.3 0.06 0.88 0.46 88 1009.3
20211016224709 52 225 1.7 3.5 0.06 0.88 0.46 89 1009.1
20211016223708 52 254 2.6 3.5 0.06 0.92 0.46 88 1009.1
20211016223608 52 263 2.6 4.3 0.06 0.93 0.46 88 1009.1
20211016222610 53 223 3.5 4.3 0.05 0.95 0.45 86 1009.0
20211016221610 55 246 3.5 6.1 0.05 0.95 0.44 82 1009.1
20211016220610 57 287 2.6 4.3 0.02 0.92 0.41 75 1009.0
20211016215610 57 258 0.9 2.6 0.00 0.90 0.40 73 1008.5
20211016214708 57 250 1.7 2.6 0.00 0.90 0.40 71 1008.5
20211016213709 58 234 3.5 5.2 0.00 0.90 0.40 71 1008.6
20211016212710 59 253 3.5 8.7 0.00 0.90 0.40 69 1008.5
20211016211711 59 245 4.3 10.4 0.00 0.90 0.40 70 1008.6
20211016210808 58 250 5.2 8.7 0.00 0.90 0.40 70 1008.5
20211016205809 59 258 4.3 7.0 0.00 0.90 0.40 71 1008.2
20211016204810 58 261 2.6 4.3 0.00 0.90 0.40 74 1008.2
20211016203825 58 261 4.3 8.7 0.00 0.90 0.40 77 1008.0
20211016202809 58 258 2.6 6.1 0.00 0.90 0.40 80 1008.1
20211016201810 57 259 3.5 6.1 0.00 0.90 0.40 81 1008.0
20211016200908 57 254 3.5 7.0 0.00 0.90 0.40 82 1007.8
20211016200008 56 263 3.5 5.2 0.00 0.90 0.40 84 1007.7
20211016195010 56 218 6.1 8.7 0.00 0.90 0.40 85 1007.5
20211016194010 56 234 5.2 9.6 0.00 0.90 0.40 86 1007.3
20211016193010 57 231 3.5 6.1 0.00 0.90 0.40 85 1007.2
20211016192907 57 233 5.2 9.6 0.00 0.90 0.40 86 1007.1
20211016191909 57 232 5.2 8.7 0.00 0.90 0.40 86 1007.0
20211016190907 57 221 2.6 4.3 0.00 0.90 0.40 88 1006.8
20211016190809 57 227 3.5 5.2 0.00 0.90 0.40 88 1006.8
20211016185908 57 233 2.6 4.3 0.00 0.90 0.40 88 1006.6
20211016184909 57 234 5.2 8.7 0.00 0.90 0.40 86 1006.7
20211016183910 57 241 3.5 5.2 0.00 0.90 0.40 85 1006.5
20211016182910 58 256 4.3 6.1 0.00 0.90 0.40 85 1006.3
20211016181909 58 234 4.3 7.0 0.00 0.90 0.40 85 1006.3
20211016181811 58 224 6.1 7.8 0.00 0.90 0.40 85 1006.1
20211016180810 57 250 6.1 9.6 0.00 0.90 0.40 86 1006.0
20211016175809 58 239 6.1 12.2 0.00 0.90 0.40 87 1006.0
20211016174809 58 224 7.8 12.2 0.00 0.90 0.40 87 1006.0
20211016173808 59 224 8.7 14.8 0.00 0.90 0.40 88 1005.9
20211016172811 59 254 5.2 10.4 0.00 0.90 0.40 88 1005.7
20211016171909 59 247 4.3 7.0 0.00 0.90 0.40 89 1005.3
20211016170909 59 255 4.3 8.7 0.00 0.90 0.40 90 1005.3
20211016170809 59 233 4.3 9.6 0.00 0.90 0.40 91 1005.3
20211016165809 59 237 6.1 10.4 0.00 0.90 0.40 94 1005.4
20211016164807 58 264 4.3 7.8 0.00 0.90 0.40 97 1005.1
20211016163809 57 215 5.2 7.8 0.01 0.90 0.40 97 1005.2
20211016162907 57 233 4.3 8.7 0.01 0.90 0.40 98 1005.2